GFSSGP_prec_cloud_147.txt.gz
Cloud_Cover
0 0 0 0 0 0 5 55 100 58 96 100 86 5 2 5 5 7 95 93 100 59 93 14 12 23 20 15 11 14 10 8 21 23 16 12 23 17 1 8 8 12 0 10 10 7 2 0 0
0 0 0 0 0 0 4 5 64 49 96 100 82 5 4 5 17 86 100 100 100 79 95 85 83 96 100 99 93 47 31 31 21 24 16 11 12 21 8 14 0 11 0 4 11 3 3 2 0
5 0 0 0 0 0 5 25 5 38 100 100 78 5 5 36 18 99 90 100 99 68 100 64 24 10 3 0 0 0 0 0 0 0 0 0 0 0 0 14 0 0 0 1 6 0 0 0 0
4 0 0 0 0 0 3 34 5 6 97 100 66 5 5 66 80 100 100 84 19 40 21 5 0 0 2 0 0 0 0 0 0 0 0 0 0 0 0 11 11 0 0 5 22 2 0 0 0
4 3 0 0 2 6 0 4 5 5 68 100 30 5 5 54 29 90 100 37 5 5 5 5 2 3 0 0 4 2 0 0 0 0 0 0 0 0 0 2 0 0 0 0 0 0 0 0 0
0 0 0 0 4 5 3 0 5 11 60 98 80 6 80 100 98 78 15 5 5 5 5 5 5 5 0 5 4 4 0 0 0 0 0 0 0 0 0 0 0 0 0 0 0 0 0 0 0
0 0 0 3 5 7 0 0 1 52 100 86 87 98 100 100 60 99 26 5 5 5 5 5 5 5 5 5 5 0 0 0 0 0 0 0 0 0 0 0 0 0 0 0 0 0 0 0 0
0 0 0 4 41 97 9 0 0 5 54 27 29 99 100 100 31 20 53 74 7 5 6 10 5 5 5 5 4 0 0 0 0 0 0 0 0 0 0 0 0 0 0 0 0 0 0 0 5
20 0 1 4 97 100 81 4 5 3 0 22 79 100 99 97 40 96 88 64 10 6 5 5 12 5 14 0 0 0 0 0 0 0 0 5 1 1 0 0 0 0 0 0 0 0 0 0 3
30 0 48 99 99 98 70 5 1 5 0 72 88 92 79 98 49 58 78 53 80 82 77 31 68 9 6 5 0 0 0 0 0 0 5 5 5 5 2 1 5 4 5 5 4 0 0 3 1
0 0 0 58 100 58 100 14 5 4 5 98 95 88 78 100 100 86 74 69 81 96 80 72 73 41 5 5 0 4 4 50 31 47 6 5 5 0 4 5 5 40 6 5 1 0 0 0 0
0 0 0 0 4 16 99 100 48 5 25 86 56 7 77 100 59 72 99 99 100 99 85 92 78 42 5 5 1 5 5 5 30 6 71 96 15 5 5 9 17 7 5 5 2 0 0 0 0
0 0 0 0 0 0 61 100 100 100 88 9 6 53 13 55 100 99 76 79 100 100 100 100 98 12 5 5 5 5 5 5 6 97 100 55 5 5 5 5 5 5 5 1 0 0 0 0 0
0 0 0 0 0 0 30 100 100 100 94 6 5 20 55 5 13 34 92 90 99 100 100 100 100 69 36 5 6 15 5 8 92 29 22 5 5 4 37 8 11 42 1 0 0 0 0 0 0
0 0 0 0 0 0 18 97 99 100 100 98 5 5 7 84 51 30 100 93 100 100 100 100 100 100 69 80 26 48 23 27 12 5 5 5 27 79 16 39 6 5 0 0 0 0 0 0 19
0 0 0 0 0 0 4 38 26 98 97 52 31 74 91 15 40 74 100 82 70 100 94 100 99 27 68 90 16 84 88 33 12 97 57 11 44 48 8 15 10 0 0 0 0 0 0 0 93
1 1 0 0 0 0 0 5 72 98 100 98 87 100 96 99 75 100 100 100 90 100 100 98 14 100 100 100 79 98 60 70 99 29 15 9 26 10 5 2 0 0 0 0 0 0 0 16 93
1 0 0 0 0 0 0 35 99 100 100 100 100 90 100 99 46 100 100 100 100 100 100 100 87 100 66 70 100 79 95 100 100 21 5 5 5 5 0 0 0 0 0 0 0 0 0 71 100
0 0 0 0 0 0 0 84 100 100 100 100 100 100 100 100 100 100 100 100 100 100 100 100 100 98 92 100 54 100 100 100 100 25 7 5 5 0 0 0 0 0 0 0 0 0 0 0 0
5 0 0 0 0 0 0 73 100 100 100 100 99 98 38 78 100 100 100 100 100 100 100 100 100 100 96 90 100 100 94 71 35 16 5 5 5 5 0 0 0 0 0 0 0 0 0 0 0
16 5 0 0 0 0 0 84 100 100 95 9 28 72 87 100 100 100 100 100 100 100 100 100 100 100 99 100 100 100 100 44 20 5 5 5 5 0 0 0 0 0 0 0 0 0 0 0 0
16 5 5 2 0 0 0 12 98 100 56 34 98 100 100 100 100 100 100 98 100 100 100 100 81 96 100 100 100 100 68 34 56 49 5 5 2 0 0 0 0 0 0 0 0 0 0 0 0
97 5 6 5 5 5 4 90 100 55 5 48 100 84 75 100 100 100 100 100 100 100 100 100 98 99 100 100 100 100 100 66 45 5 5 0 0 0 0 0 0 0 0 0 0 0 0 0 0
100 47 68 79 98 38 5 98 100 8 39 74 100 72 100 100 100 100 100 91 99 99 100 100 99 100 100 100 100 100 85 46 74 12 4 0 0 0 0 0 0 0 0 0 0 0 0 0 0
100 100 100 100 89 11 5 20 64 6 65 5 34 63 100 100 100 100 100 100 94 100 100 100 100 100 100 100 100 96 81 72 6 5 0 0 0 0 0 0 0 0 0 0 0 0 0 0 0
100 100 96 11 2 0 0 2 6 5 5 88 100 100 100 100 88 76 98 95 100 100 100 100 100 100 100 100 93 95 77 30 5 0 0 0 0 0 0 0 0 0 0 0 0 0 0 0 0
100 100 95 5 5 4 1 0 5 5 48 98 100 100 100 100 99 25 72 100 100 100 100 100 100 100 93 99 42 84 24 0 0 0 0 0 0 0 0 0 0 0 0 0 0 0 0 0 0
100 100 81 5 5 4 0 0 5 4 14 97 100 100 100 100 67 27 64 100 100 100 100 100 100 99 97 27 1 0 0 0 0 0 0 0 0 0 0 0 0 0 0 0 4 4 0 1 5
100 100 96 5 5 5 4 0 0 3 5 5 3 5 65 76 70 100 100 97 59 23 42 31 3 3 0 0 0 0 0 0 0 0 0 0 0 0 0 0 5 5 3 0 3 0 1 5 10
88 100 33 5 5 5 5 5 5 3 0 0 0 1 2 5 5 50 16 5 5 5 0 0 0 0 0 0 0 0 0 0 0 0 0 1 0 0 0 0 0 0 0 0 0 5 5 5 29

GFSSGP_prec_cloud_150.txt.gz
Cloud_Cover
0 0 0 0 0 0 4 14 24 52 51 100 100 26 5 5 5 2 87 97 100 74 72 58 4 8 21 21 17 20 21 25 28 31 34 26 22 20 15 4 3 13 14 13 10 13 13 5 0
5 0 0 0 0 0 0 5 5 5 24 100 100 11 5 5 5 100 76 100 94 100 100 96 15 69 88 99 99 17 18 6 0 0 0 0 0 1 22 19 18 17 15 11 19 15 4 0 0
5 0 0 0 0 0 0 81 5 5 5 95 100 7 5 5 56 93 100 100 94 97 86 96 45 17 5 0 0 0 0 0 0 0 0 0 0 0 0 19 20 3 0 2 13 10 1 0 0
5 5 0 0 0 0 0 13 5 5 5 33 100 12 5 15 68 98 100 100 82 99 84 5 2 0 0 0 0 0 1 3 0 0 0 0 0 0 0 26 1 0 0 13 13 18 13 0 0
6 5 4 0 0 4 5 5 0 5 5 58 89 56 5 18 23 84 100 86 38 35 22 7 2 0 0 0 0 0 5 2 5 0 0 0 0 0 0 0 0 0 0 0 0 0 0 0 0
3 1 0 0 3 49 78 55 5 5 5 5 49 9 5 47 100 100 96 26 6 5 5 5 2 0 0 0 1 4 2 4 0 0 0 0 0 0 0 0 0 0 0 0 0 0 0 0 0
0 0 0 3 5 62 31 41 5 4 2 5 81 9 5 6 100 100 69 70 7 5 5 5 5 5 2 5 5 5 2 0 0 0 0 0 0 0 0 0 0 0 0 0 0 0 0 0 0
0 0 0 0 5 23 100 67 57 12 5 18 94 24 7 65 100 95 58 100 86 16 5 5 5 5 5 5 5 5 0 0 0 0 0 0 0 0 0 0 0 4 0 0 0 0 0 0 0
0 0 0 2 56 71 99 85 49 64 6 4 98 100 26 69 75 78 75 82 46 60 49 5 5 5 5 0 1 5 0 0 0 1 0 0 0 1 0 0 5 5 3 0 0 0 0 0 0
0 0 0 0 26 88 86 73 78 73 80 27 50 98 23 73 15 36 97 100 100 97 65 12 5 5 5 5 5 5 3 0 0 4 5 5 5 5 5 5 5 5 5 0 0 0 0 0 0
0 0 0 0 0 56 98 35 5 64 72 62 99 94 62 46 7 86 98 87 100 100 34 61 99 59 5 5 5 5 5 0 0 3 5 4 2 5 80 27 7 5 5 0 0 0 0 0 0
14 0 0 0 0 0 19 84 44 38 97 100 5 22 5 5 5 93 99 100 100 100 100 8 89 31 5 5 5 5 5 4 0 5 3 5 14 40 5 5 1 0 3 2 3 1 0 0 0
64 12 0 0 0 0 0 28 38 100 100 91 5 65 5 8 20 95 100 100 100 98 91 57 84 47 5 5 21 18 20 22 5 5 5 5 5 4 1 5 5 5 5 5 3 1 0 0 0
12 0 0 0 0 0 0 1 23 83 100 69 5 5 5 20 97 98 76 90 100 99 77 99 97 46 15 6 69 71 83 17 5 5 5 5 5 5 5 5 0 5 0 2 1 0 0 0 0
100 1 0 0 0 0 0 0 2 63 100 100 84 51 38 7 96 89 94 100 97 100 98 71 100 100 19 80 100 100 26 24 36 5 5 5 19 5 5 5 5 0 0 0 0 0 0 0 0
79 6 0 0 0 0 0 0 0 6 100 100 95 89 100 60 87 100 100 98 100 100 97 67 99 100 71 75 98 100 100 100 67 64 5 46 21 87 6 5 5 0 0 0 0 0 0 0 92
100 70 0 0 0 0 0 0 0 1 90 99 100 96 96 100 100 100 92 99 100 98 96 93 100 100 100 86 81 94 95 65 56 14 82 100 67 85 36 5 2 0 0 0 0 0 0 0 91
67 97 0 0 0 0 0 0 0 0 82 100 100 90 100 100 100 68 100 100 100 100 100 100 100 100 100 99 87 92 60 94 27 92 100 93 16 5 5 5 0 0 0 0 0 0 0 0 11
57 2 0 0 0 0 0 0 0 0 8 100 100 99 78 100 100 100 100 100 100 100 100 100 100 100 66 89 100 66 100 38 95 100 96 59 8 14 5 4 0 0 0 0 0 0 0 0 0
100 1 0 0 0 0 0 0 0 0 10 100 100 100 94 52 100 100 100 100 100 100 100 100 100 61 38 100 84 59 98 99 100 100 100 64 5 5 5 2 0 0 0 0 0 0 0 0 0
100 73 0 0 0 0 0 18 5 1 5 86 65 8 5 5 91 100 100 100 100 100 100 100 100 100 100 100 72 97 91 100 100 100 100 100 50 46 5 0 0 0 0 0 0 0 0 0 0
100 6 4 0 4 0 0 12 5 2 30 5 9 5 5 81 100 100 100 100 100 100 100 100 100 100 100 100 79 73 100 100 100 100 100 100 88 5 0 0 0 0 0 0 0 0 0 0 0
100 51 68 7 72 7 5 5 0 26 7 5 6 73 85 100 100 100 100 100 100 100 100 100 100 100 100 100 100 95 100 100 100 100 100 99 8 5 0 0 0 0 0 0 0 0 0 0 0
100 100 98 100 87 99 52 5 2 0 41 84 6 63 81 98 100 100 100 100 100 100 100 100 100 92 90 94 77 100 100 100 100 100 94 5 5 5 0 0 0 0 0 0 0 0 0 0 0
100 100 100 100 100 88 69 90 10 4 29 29 5 45 100 100 100 100 100 100 100 100 100 100 99 88 91 53 100 100 100 100 100 98 6 5 5 0 0 0 0 0 0 0 0 0 0 0 0
97 100 100 100 61 30 71 14 9 5 5 0 0 4 10 72 98 100 100 100 100 100 100 100 98 100 92 100 100 100 100 100 93 5 5 5 0 0 0 0 0 0 0 0 0 0 0 0 0
100 100 100 100 41 5 4 4 5 5 2 3 5 0 6 100 100 100 100 100 100 100 100 100 100 94 76 100 100 100 100 71 20 5 5 0 0 0 0 0 0 0 0 0 0 0 0 0 0
100 74 88 100 26 5 5 5 4 4 13 28 5 5 94 100 100 96 100 100 100 81 98 59 90 100 100 100 100 96 37 5 5 3 0 0 0 0 0 0 0 0 0 0 0 0 1 3 5
58 75 100 82 25 5 4 10 95 88 100 97 35 100 100 94 96 100 100 100 66 5 5 69 100 100 100 63 49 21 1 0 0 0 0 0 0 0 0 0 0 2 2 0 0 4 5 5 5
8 73 100 90 23 5 5 85 100 100 100 22 52 100 98 100 100 100 90 36 5 5 82 100 48 13 5 5 0 0 0 0 0 0 0 0 0 0 0 0 0 5 0 0 4 5 5 5 80

GFSSGP_prec_cloud_153.txt.gz
Cloud_Cover
0 0 0 0 0 3 52 75 97 10 8 99 100 89 5 5 5 20 90 100 90 100 63 54 13 18 7 17 13 18 21 29 29 33 61 20 19 23 13 18 20 21 18 8 10 6 11 11 0
5 5 0 0 0 0 6 91 26 5 5 7 100 82 5 5 55 68 64 100 100 100 87 67 20 31 22 66 25 19 10 0 0 0 0 0 0 0 17 19 25 24 19 17 10 12 15 3 0
65 5 0 0 0 0 5 5 10 0 5 5 69 42 7 5 58 95 62 99 100 100 96 60 56 77 30 3 0 0 0 0 1 3 0 0 0 0 5 23 33 26 18 10 6 16 21 0 0
89 5 0 0 0 0 1 3 5 0 0 5 5 5 5 10 46 42 96 72 66 84 60 59 5 0 0 0 0 0 0 2 3 5 5 0 0 0 10 16 0 0 0 0 3 11 25 0 0
6 12 5 0 0 1 0 0 4 0 0 4 5 53 5 5 95 75 100 100 65 100 36 12 5 0 0 0 0 0 0 0 5 3 0 0 0 0 0 0 0 0 0 0 0 0 0 0 0
0 0 0 5 38 5 4 5 12 0 0 5 6 86 5 31 89 100 100 100 100 76 34 5 5 5 1 0 1 1 4 3 3 2 0 0 0 0 0 0 0 0 0 0 0 0 0 0 0
0 0 0 3 12 43 3 17 86 15 0 1 6 8 5 88 78 100 100 90 21 5 63 5 5 5 5 0 5 3 4 5 3 0 0 0 0 0 0 0 0 0 0 0 0 0 0 0 0
0 0 0 0 0 7 94 97 94 5 5 0 0 30 46 54 95 100 26 5 14 69 41 10 5 5 5 5 5 1 0 0 0 0 0 0 0 0 0 0 0 0 5 0 0 0 0 0 0
25 2 0 0 0 10 100 100 100 17 8 69 4 8 69 8 100 99 5 5 55 67 88 88 19 29 5 5 5 4 1 0 0 0 0 0 0 0 0 0 0 4 5 5 1 0 0 0 0
99 0 0 0 4 5 80 100 100 100 39 9 48 10 5 9 100 62 54 32 57 54 80 74 29 77 9 5 5 5 4 5 0 0 0 0 0 0 0 0 0 4 5 0 0 0 0 0 0
98 3 0 0 0 0 5 68 100 100 69 54 99 14 4 37 67 6 99 100 100 50 100 100 87 59 72 28 5 5 0 5 2 3 0 4 0 0 0 0 0 0 0 0 0 0 0 0 0
98 5 1 0 0 0 3 92 9 88 100 88 46 84 5 5 62 7 88 87 76 46 100 100 100 87 86 52 6 5 5 5 5 5 5 5 4 0 0 0 0 3 0 0 0 0 0 0 0
100 94 36 0 98 0 0 3 5 5 90 100 96 40 81 13 9 5 81 98 100 99 97 100 97 98 93 25 33 5 5 5 5 5 22 6 5 5 5 1 3 5 4 0 0 0 0 0 0
81 66 100 15 29 0 0 0 0 0 8 93 98 5 5 32 32 72 86 96 76 100 100 100 97 81 83 77 67 5 5 5 48 78 14 89 74 5 7 5 5 5 1 0 0 0 0 0 0
100 100 100 100 5 0 0 0 0 0 1 6 100 18 5 6 50 59 59 73 95 100 100 100 100 53 78 100 91 43 51 64 88 81 100 94 5 5 5 26 92 4 0 0 0 0 0 0 10
100 100 100 40 0 0 0 0 0 0 0 0 69 99 20 43 75 32 44 100 100 100 97 100 97 95 100 56 92 85 99 96 50 91 38 95 9 5 19 99 5 0 0 0 0 0 0 0 16
100 100 100 100 0 0 0 0 0 0 0 0 19 77 53 40 100 100 89 96 85 100 100 100 100 100 100 56 82 71 100 100 100 100 95 94 10 27 99 41 14 5 1 0 0 0 0 0 3
100 100 100 94 3 0 0 0 0 0 0 0 20 98 97 96 100 100 100 100 100 100 100 100 100 90 91 68 90 79 100 100 100 97 99 54 86 100 100 99 97 5 5 0 0 0 0 0 0
100 100 97 5 2 0 0 1 0 0 0 0 0 43 97 100 100 100 100 100 100 100 100 100 100 84 100 100 100 100 100 100 87 14 50 54 100 100 100 100 100 81 5 2 0 0 0 0 0
100 100 100 100 5 0 0 0 0 0 0 0 3 100 100 100 100 100 100 100 100 100 100 100 100 100 100 100 100 95 97 100 87 73 59 100 100 100 100 100 88 5 4 0 0 0 0 0 0
100 100 100 71 0 0 0 0 0 0 0 0 0 12 21 99 100 100 100 100 100 100 100 100 100 100 100 100 100 100 100 100 81 72 100 100 100 100 100 98 64 4 0 0 0 0 0 0 0
100 100 100 36 0 0 0 5 0 0 0 0 0 5 14 61 76 97 100 100 100 100 100 100 100 100 100 100 100 100 100 96 99 93 100 100 100 100 100 100 36 0 0 0 0 0 0 0 0
100 100 100 87 0 0 0 19 1 0 0 0 0 0 4 100 100 100 100 100 100 100 100 100 100 100 100 100 100 97 98 100 92 100 100 100 100 100 100 97 5 0 0 0 0 0 0 0 0
100 100 100 100 68 74 1 2 60 1 0 0 0 0 0 96 100 96 95 100 100 100 100 100 100 100 100 100 86 83 99 91 96 100 100 100 100 100 100 50 1 0 0 0 0 0 0 0 0
98 72 100 97 99 10 45 11 72 0 0 1 0 0 0 48 100 94 98 100 100 100 100 100 100 100 100 100 100 100 98 61 99 100 100 100 100 100 84 5 0 0 0 0 0 0 0 0 0
100 100 100 94 79 35 4 51 5 0 0 0 0 0 0 5 100 100 100 100 100 100 100 100 100 100 99 96 81 74 50 61 100 100 100 100 100 82 5 0 0 0 0 0 0 0 0 0 0
100 100 100 100 100 9 6 5 0 2 0 0 0 5 63 98 98 39 100 100 97 100 100 100 100 100 96 100 100 100 90 100 100 100 100 100 10 5 0 0 0 0 0 0 0 0 0 0 0
100 100 100 100 100 100 5 4 0 4 0 0 0 5 58 100 100 100 100 60 100 100 100 100 100 100 100 100 100 100 100 100 100 100 81 8 0 0 0 0 0 0 0 0 0 0 0 1 0
100 100 100 100 71 100 9 1 5 5 5 5 4 4 53 100 99 14 5 41 100 100 100 100 100 100 100 27 87 100 100 100 89 11 0 0 0 0 0 0 0 0 0 0 0 5 4 0 0
100 100 100 100 99 52 7 19 5 5 5 5 5 5 50 49 37 3 5 40 100 100 100 100 100 99 7 43 65 25 5 5 2 0 0 0 0 0 0 0 0 0 0 0 4 5 0 0 1

GFSSGP_prec_cloud_156.txt.gz
Cloud_Cover
5 1 0 0 0 0 20 96 89 12 7 5 5 5 12 42 5 20 89 85 100 5 10 85 100 82 14 13 19 11 16 23 9 3 0 0 2 17 19 5 0 0 16 8 1 9 5 16 0
81 42 1 0 0 0 4 79 24 34 5 48 5 5 5 98 92 76 88 100 100 84 17 73 100 56 23 79 52 13 2 0 0 0 0 0 0 1 16 17 25 15 16 14 7 13 18 9 0
10 56 75 2 0 1 78 4 45 5 5 32 24 5 76 71 38 89 96 100 100 100 90 37 31 76 99 17 0 0 0 0 0 0 0 0 0 24 75 50 1 0 4 19 13 8 14 24 8
64 6 5 2 0 5 9 38 0 0 47 12 47 5 5 5 5 49 84 100 100 100 81 100 11 6 5 0 0 0 0 0 0 0 0 0 0 0 0 0 0 0 0 0 0 0 0 0 0
5 4 3 3 5 3 40 100 6 0 13 8 5 5 5 21 10 12 100 100 100 99 35 26 5 5 5 5 0 0 0 1 0 0 0 0 0 0 0 0 0 0 0 0 0 0 0 0 0
2 0 0 0 5 5 80 42 18 4 4 4 0 4 5 6 43 100 100 100 100 92 6 5 5 94 5 5 5 0 0 5 0 0 4 3 0 0 0 0 0 0 0 0 0 0 0 0 0
4 0 0 0 0 3 58 100 0 77 60 0 0 1 5 39 60 100 100 100 100 42 5 5 44 100 60 5 5 4 5 5 2 0 1 0 0 0 0 0 0 0 0 0 0 0 0 0 0
36 1 0 0 0 0 67 100 100 100 100 6 0 0 19 90 92 100 100 100 100 5 6 41 94 91 36 15 5 5 5 2 0 0 0 0 0 0 0 0 0 0 0 0 0 0 0 0 0
97 87 7 0 0 0 2 92 31 100 100 6 5 4 4 4 100 100 100 87 25 8 71 58 100 100 99 77 54 5 5 5 0 0 0 0 0 0 0 0 0 0 0 0 0 0 0 0 0
64 68 4 0 0 0 0 5 12 68 100 93 100 10 73 7 100 100 19 5 62 32 92 100 100 98 93 64 94 9 5 7 2 0 4 0 0 0 0 0 0 0 0 0 0 0 0 0 0
11 16 5 0 0 0 0 0 25 8 35 100 100 19 38 37 100 100 5 5 100 89 100 100 100 99 98 69 88 74 85 35 1 0 2 1 0 0 1 4 0 0 0 0 0 0 0 0 0
100 90 5 0 0 0 0 0 0 30 11 85 99 100 42 34 100 94 3 28 100 85 89 100 100 100 100 97 67 72 5 25 5 5 2 5 2 11 5 5 5 0 0 0 0 0 0 0 0
43 11 33 86 0 0 0 0 0 8 48 82 79 100 100 69 100 31 67 10 100 94 100 100 100 87 100 100 78 51 8 67 70 5 5 5 50 91 99 30 2 0 0 0 2 0 0 0 0
16 5 12 39 8 92 5 0 0 1 5 6 71 100 100 100 22 13 97 8 100 100 100 100 100 99 100 100 83 11 29 5 5 5 45 5 42 95 7 4 0 0 0 5 0 0 0 0 0
6 96 43 98 17 16 16 0 0 0 5 3 8 8 66 43 45 72 95 91 100 100 100 100 100 100 100 100 48 28 5 46 43 5 9 99 100 92 12 5 5 5 5 5 5 0 0 0 0
100 99 75 100 100 2 98 1 0 0 0 3 8 5 42 62 6 65 49 75 100 100 99 100 94 88 83 100 92 44 98 47 34 6 99 100 100 100 10 5 5 5 5 8 5 5 4 0 0
100 99 99 100 100 99 54 22 0 0 0 0 5 5 7 79 62 48 52 76 93 96 99 93 100 95 100 100 92 100 100 18 6 31 80 100 100 34 5 8 5 14 55 22 5 5 0 0 0
100 100 100 99 100 100 24 19 0 0 0 0 0 3 61 99 98 72 66 87 88 84 73 100 100 96 94 72 53 100 87 90 42 99 100 100 96 25 8 9 24 53 79 30 7 5 5 0 0
75 100 82 96 100 100 55 12 0 0 0 0 0 0 1 84 92 99 100 100 92 97 100 100 100 100 100 100 100 100 93 80 100 100 100 100 100 78 67 34 66 52 46 60 8 16 5 0 0
100 100 100 100 100 100 100 4 100 54 0 0 0 0 1 5 22 68 100 100 100 100 100 100 100 100 100 100 100 100 100 100 100 100 100 100 100 100 77 72 94 74 72 70 22 5 3 0 0
100 100 100 100 100 100 88 0 99 7 1 0 0 0 0 2 100 100 100 100 100 100 100 100 100 100 100 100 100 100 100 100 100 100 100 100 100 90 100 95 100 100 98 83 8 5 0 0 0
100 100 100 100 100 85 100 0 30 2 0 1 0 0 0 0 41 72 99 100 100 100 100 100 100 100 100 100 100 100 100 100 100 100 100 96 99 100 78 100 86 100 100 37 5 3 0 0 0
100 100 100 100 100 100 100 3 4 0 0 0 0 0 0 0 69 98 100 100 100 100 100 100 100 100 100 100 100 100 100 100 97 100 94 89 100 65 100 95 100 100 99 58 5 0 0 0 0
100 100 91 100 91 100 97 39 3 0 0 0 0 0 0 0 61 100 100 97 100 100 100 100 100 100 100 100 100 100 100 97 97 100 80 100 59 28 100 100 99 100 100 8 0 0 0 0 0
100 85 100 100 100 78 87 90 64 0 0 0 0 0 0 0 3 13 100 100 100 100 100 100 100 100 100 100 100 100 100 98 100 97 91 65 15 99 100 100 99 100 6 1 0 0 0 0 0
97 71 98 100 54 100 99 63 100 59 0 2 0 0 0 0 1 35 60 100 100 100 100 100 100 100 100 100 100 100 100 100 59 71 95 100 100 100 100 100 98 20 0 0 0 0 0 0 0
100 100 97 100 100 100 100 5 96 31 0 0 0 0 0 0 5 5 5 93 100 100 100 100 100 100 100 100 100 100 99 88 99 36 97 99 100 100 100 72 5 0 0 0 0 0 0 0 0
100 100 100 100 100 100 100 1 30 9 0 0 0 0 0 1 4 5 5 68 100 100 100 100 100 100 100 99 98 96 100 76 41 8 9 100 99 58 2 0 0 0 0 0 0 0 0 0 0
99 100 100 100 100 100 100 1 0 0 0 0 0 0 0 0 3 5 5 18 100 100 88 100 100 100 100 100 100 74 76 52 5 5 5 5 1 0 0 0 0 0 0 0 0 0 0 0 0
100 100 100 100 100 100 100 1 0 0 1 5 5 0 3 0 2 17 99 85 100 81 97 100 100 100 100 94 94 88 68 6 2 0 0 0 0 0 0 0 0 0 0 0 0 0 0 0 0